[Iaude] MPEC P44: 2024 OA3 [a=1.44,e=0.78,i=16.2,H=22.5]
    mpec at cfa.harvard.edu 
    mpec at cfa.harvard.edu
       
    Sat Aug  3 09:01:59 EDT 2024
    
    
  
M.P.E.C. 2024-P44                                Issued 2024 August 3, 12:59 UT
     The Minor Planet Electronic Circulars contain information on unusual
         minor planets, routine data on comets and natural satellites,
         and occasional editorial announcements.  They are published
    on behalf of Division F of the International Astronomical Union by the
          Minor Planet Center, Smithsonian Astrophysical Observatory,
                          Cambridge, MA 02138, U.S.A.
			  
             Prepared using the Tamkin Foundation Computer Network
                              MPC at CFA.HARVARD.EDU
            URL https://www.minorplanetcenter.net/    ISSN 1523-6714
                                    2024 OA3                                    
Observations:
     K24O03A* C2024 07 28.44570322 20 29.280-10 45 32.80         20.92wXEP044F51
     K24O03A  C2024 07 28.44570422 20 29.278-10 45 32.68         20.68GVEP044F51
     K24O03A  C2024 07 28.45671422 20 29.299-10 46 02.25         20.80wXEP044F51
     K24O03A  C2024 07 28.45671522 20 29.293-10 46 02.23         20.56GVEP044F51
     K24O03A  C2024 07 28.46771322 20 29.316-10 46 31.93         20.79wXEP044F51
     K24O03A  C2024 07 28.46771422 20 29.314-10 46 31.95         20.42GVEP044F51
     K24O03A  C2024 07 28.47872322 20 29.320-10 47 01.51         21.07wXEP044F51
     K24O03A  C2024 07 28.47872422 20 29.323-10 47 01.48         20.74GVEP044F51
     K24O03A  C2024 08 01.52403622 21 17.532-14 53 44.92         20.01wXEP044F52
     K24O03A  C2024 08 01.53590422 21 17.409-14 54 43.57         20.05wXEP044F52
     K24O03A  C2024 08 01.55967822 21 17.165-14 56 41.24         20.07wXEP044F52
     K24O03A KC2024 08 02.37694122 21 24.01 -16 09 44.7          19.6 GVEP044H21
     K24O03A KC2024 08 02.37978622 21 24.00 -16 10 00.8          19.4 GVEP044H21
     K24O03A KC2024 08 02.38263122 21 23.96 -16 10 17.0          19.9 GVEP044H21
     K24O03A KC2024 08 02.38509722 21 23.96 -16 10 31.5          19.9 GVEP044H21
     K24O03A KC2024 08 02.41235 22 21 25.438-16 13 10.99         20.5 GVEP044U52
     K24O03A KC2024 08 02.41903 22 21 25.342-16 13 50.16         19.7 GVEP044U52
     K24O03A KC2024 08 02.42572 22 21 25.344-16 14 29.54         19.1 GVEP044U52
     K24O03A KC2024 08 02.61503 22 21 26.484-16 31 54.66         19.4 GVEP044R65
     K24O03A KC2024 08 02.61855 22 21 26.434-16 32 15.76         19.2 GVEP044R65
     K24O03A KC2024 08 02.62216 22 21 26.417-16 32 37.43         19.6 GVEP044R65
     K24O03A KB2024 08 02.98670622 21 30.295-17 11 36.10         19.5 VZEP044K74
     K24O03A KB2024 08 03.02386822 21 29.959-17 15 36.29         19.9 VZEP044K74
     K24O03A IC2024 08 03.05912122 21 29.52 -17 19 23.1          19.8 GXEP044595
     K24O03A KC2024 08 03.06516922 21 29.38 -17 20 03.3          19.9 GXEP044595
     K24O03A KC2024 08 03.26767422 21 32.11 -17 42 26.9          20.0 GVEP044H21
     K24O03A KC2024 08 03.27052122 21 32.08 -17 42 46.3          19.6 GVEP044H21
     K24O03A KC2024 08 03.27336822 21 32.04 -17 43 05.7          19.6 GVEP044H21
     K24O03A KC2024 08 03.27621322 21 32.00 -17 43 25.0          19.8 GVEP044H21
     K24O03A KC2024 08 03.27829822 21 31.97 -17 43 39.2          19.8 GVEP044H21
Observer details:
595 Farra d'Isonzo.  Observers E. Amodeo, E. Pettarin.  Measurer E. Pettarin.
    0.61-m f/4.5 reflector + CCD.
F51 Pan-STARRS 1, Haleakala.  Observers J. Herman, T. Lowe, P. Minguez, A.
    Schultz, I. Smith.  Measurers K. Chambers, T. de Boer, J. Fairlamb, H.
    Gao, M. Huber, C.-C. Lin, E. Magnier, Y. Ramanjooloo, R. Wainscoat, R.
    Weryk.  1.8-m Ritchey-Chretien + CCD.
F52 Pan-STARRS 2, Haleakala.  Observers J. Herman, T. Lowe, P. Minguez, A.
    Schultz, I. Smith.  Measurers K. Chambers, T. de Boer, J. Fairlamb, H.
    Gao, M. Huber, C.-C. Lin, E. Magnier, Y. Ramanjooloo, R. Wainscoat, R.
    Weryk.  1.8-m Ritchey-Chretien + CCD.
H21 Astronomical Research Observatory, Westfield.  Observer R. Holmes.
    Measurers T. Linder, R. Holmes.  0.81-m f/4.0 astrograph + CCD.
K74 Muensterschwarzach Observatory, Schwarzach.  Observer C. Gerhard.  0.30-m
    f/3.75 reflector + CMO.
R65 R. F. Joyce Observatory, Christchurch.  Observer R. B. Glassey.  0.4-m
    f/8.0 Schmidt Cassegrain + CCD.
U52 Shasta Valley Observatory, Grenada.  Observers J. E. Rogers, B. Haeusler.
    Measurers J. E. Rogers, D. Parrott.  0.30-m f/5.2 Helin Telescope + CCD.
Orbital elements:
2024 OA3                                                 Earth MOID = 0.0477 AU
Epoch 2024 Oct. 17.0 TT = JDT 2460600.5                 Veres                   
M  10.25120              (2000.0)            P               Q                  
n   0.57309046     Peri.  314.19062     +0.07164166     -0.97458115             
a   1.4354473      Node   130.45579     +0.97610048     +0.02472686             
e   0.7763500      Incl.   16.19882     +0.20517144     +0.22266604             
P   1.72           H   22.56          G   0.15           U   8                  
Residuals in seconds of arc
240728 F51  0.0   0.0     240802 H21  0.2-  0.1+    240803 K74  0.3-  0.3+
240728 F51  0.0   0.0     240802 H21  0.1+  0.3-    240803 595  0.7+  0.7+
240728 F51  0.1+  0.1-    240802 U52  1.4+  0.3-    240803 595  0.4-  0.2-
240728 F51  0.1+  0.0     240802 U52  1.0+  0.8-    240803 H21  0.1-  0.2+
240801 F52  0.0   0.0     240802 U52 (1.9+  1.5-)   240803 H21  0.0   0.1+
240801 F52  0.0   0.0     240802 R65  0.0   0.0     240803 H21  0.0   0.1+
240801 F52  0.0   0.0     240802 R65  0.2-  0.0     240803 H21  0.1-  0.2+
240802 H21  0.2-  0.1-    240802 R65  0.0   0.1-    240803 H21  0.1-  0.2+
240802 H21  0.1+  0.1+    240802 K74  0.2-  0.2+
Ephemeris:
2024 OA3                 a,e,i = 1.44, 0.78, 16                  q = 0.3210
Date    TT    R. A. (2000) Decl.     Delta      r    Elong.  Phase     V
2024 07 04    22 09 14.4 -04 55 34   0.6543  1.5187   129.4    31.2    23.9
...
2024 07 19    22 17 16.5 -06 37 18   0.3953  1.3516   142.5    27.2    22.4
...
2024 07 27    22 20 05.4 -09 46 42   0.2655  1.2540   150.8    23.3    21.3
...
2024 08 02    22 21 22.1 -15 34 05   0.1727  1.1766   157.8    19.0    20.1
2024 08 03    22 21 29.6 -17 12 06   0.1578  1.1633   158.9    18.3    19.8
2024 08 04    22 21 35.2 -19 10 31   0.1430  1.1499   159.8    17.7    19.6
...
2024 08 10    22 20 43.1 -49 09 21   0.06507 1.0671   144.2    33.8    18.2
...
2024 08 18    10 24 01.0 -33 10 11   0.09503 0.9500    47.0   128.8    22.9
...
2024 09 02    10 22 34.8 -08 48 16   0.3235  0.7076    17.6   154.4    28.7
M. P. C. Staff               (C) Copyright 2024 MPC           M.P.E.C. 2024-P44
    
    
More information about the Iaude
mailing list